Dewpoint
58 58 59 59 59 59 59 59 59 59 59 59 59 59 59 59 58 49 43 42 44 62 61 27 28 30 28 21 19 20 26 26 29 44 52 54 57 61 60 58 59 60 60 60 61
57 57 58 59 59 59 59 59 59 59 59 59 59 59 59 59 48 36 50 61 62 61 28 23 26 23 16 16 18 29 33 36 34 48 52 52 49 55 59 58 59 60 61 62 62
56 57 58 58 59 59 59 59 59 59 59 59 59 59 59 57 43 32 65 63 63 56 33 28 27 25 17 19 28 36 31 41 49 57 53 53 53 55 57 57 59 59 59 61 61
56 56 57 58 58 58 58 59 59 59 59 59 59 58 59 50 31 29 65 65 65 45 33 29 29 21 17 19 23 34 40 53 54 56 56 56 57 57 57 58 59 59 59 60 60
57 56 57 57 57 58 58 58 59 59 59 58 58 59 46 41 36 41 66 63 45 33 27 26 26 20 17 21 25 35 46 53 53 55 56 56 56 56 58 59 60 59 59 60 60
57 57 57 57 57 57 57 57 57 57 58 58 59 59 49 36 26 37 43 40 31 29 26 23 17 16 16 33 41 43 48 49 48 51 55 55 55 55 58 59 58 58 58 58 58
57 56 56 56 57 57 57 57 57 57 58 58 59 51 38 34 23 24 29 23 23 23 17 18 18 17 17 39 44 42 41 46 46 48 51 51 51 54 57 57 57 57 57 57 57
56 56 56 56 56 57 57 57 57 57 58 59 59 46 38 38 33 19 20 18 19 15 17 17 17 16 18 40 39 40 48 44 45 44 50 46 44 54 57 55 55 55 55 55 55
56 56 56 56 56 57 57 56 57 58 58 59 52 44 39 39 15 20 21 19 19 16 15 13 18 16 16 37 38 40 41 43 45 47 48 48 49 53 56 55 54 54 54 53 53
56 56 55 56 56 56 55 56 57 56 56 47 44 39 39 27 20 21 19 21 19 17 18 17 17 15 15 32 28 38 40 42 43 44 45 46 47 55 55 54 54 53 53 53 52
55 55 55 55 55 55 52 48 44 46 44 40 38 34 21 18 14 17 19 19 20 21 21 22 12 12 18 29 27 37 40 41 42 44 42 50 53 54 55 55 53 53 52 52 53
55 55 55 55 55 55 51 43 44 32 31 37 37 30 21 19 20 19 19 19 22 21 22 21 20 28 23 19 22 31 30 35 38 40 45 46 47 53 53 54 54 52 52 52 53
55 55 55 55 54 50 42 41 41 29 33 30 28 22 20 22 22 21 20 20 21 21 22 25 28 28 21 24 25 28 27 26 26 30 48 46 45 48 53 53 55 54 54 54 55
54 54 55 55 46 40 37 39 36 37 34 24 17 23 20 21 28 23 22 21 22 23 24 27 29 22 20 25 26 25 30 30 29 26 26 40 40 47 48 50 54 53 54 53 54
54 54 54 53 49 30 34 30 41 39 33 20 17 21 17 19 20 20 23 22 25 22 22 28 31 28 25 25 26 28 27 28 26 26 31 41 43 47 47 46 51 53 53 53 48
54 54 54 48 46 34 29 29 38 37 37 22 18 17 15 17 18 22 27 31 27 32 32 33 35 36 37 32 29 28 31 30 28 27 33 41 42 44 47 49 50 49 47 47 48
53 53 50 41 40 32 31 37 35 37 39 25 15 12 14 17 22 25 27 31 31 30 29 36 37 38 35 33 32 31 29 26 24 23 35 41 41 45 49 50 50 48 48 48 47
52 51 49 29 22 28 39 38 39 37 36 34 13 12 16 23 25 25 33 34 34 32 30 30 36 37 38 35 31 29 28 23 19 22 26 41 41 43 48 50 49 49 48 47 48
50 51 48 49 40 37 39 37 38 39 25 25 16 17 24 31 30 31 37 37 34 35 36 32 34 36 35 31 29 28 28 29 24 26 34 41 43 47 48 49 48 46 46 46 46
52 50 48 44 42 41 40 40 40 32 27 29 34 35 35 33 33 36 42 43 38 39 38 38 33 33 25 35 32 29 32 30 33 29 30 38 38 41 43 44 44 45 45 45 43
54 48 44 33 42 41 38 40 38 27 29 35 34 36 36 37 36 37 41 38 38 39 41 39 37 34 32 33 31 31 30 34 34 35 34 33 38 41 39 41 41 40 39 38 36
55 46 38 36 36 41 36 39 34 30 32 34 37 37 35 36 35 37 36 37 42 42 42 43 36 38 34 37 35 31 32 34 33 32 38 37 38 39 39 41 40 40 39 37 37
52 50 39 40 40 41 38 31 32 31 33 34 34 34 34 38 34 37 37 36 41 43 43 43 40 31 34 37 37 30 29 34 34 36 34 33 38 38 40 39 39 38 38 38 38
54 47 42 41 42 41 39 34 33 31 30 30 30 30 33 33 35 33 38 39 43 42 53 50 39 36 31 31 32 31 29 30 32 29 34 37 38 39 38 39 38 36 37 38 39
56 47 50 44 42 43 41 36 32 34 37 34 35 37 39 40 40 39 39 37 41 46 44 45 42 38 31 28 28 27 27 28 28 31 34 36 35 37 38 39 38 37 37 38 38
53 50 52 44 42 41 41 40 37 34 37 37 37 38 42 39 38 38 40 44 43 44 42 44 39 42 38 34 36 32 29 29 33 31 30 33 34 39 41 40 39 37 37 38 38
55 56 55 43 40 39 38 37 39 40 37 42 44 42 40 37 37 36 38 39 40 41 42 40 39 41 37 37 36 35 33 30 33 31 33 32 32 36 39 39 39 38 38 38 39
Lifted_Index
12 12 12 12 12 12 12 12 13 13 12 12 12 11 11 10 9 7 6 6 7 8 7 7 6 5 3 2 2 1 0 -0 -0 -1 -1 -2 -3 -3 -4 -4 -4 -4 -5 -5 -5
12 12 12 12 12 12 12 12 12 12 12 12 11 11 11 10 8 6 6 6 7 7 7 6 5 4 3 1 1 1 -0 -1 -1 -2 -2 -2 -2 -3 -4 -4 -4 -4 -4 -4 -4
13 13 13 13 13 12 12 12 12 12 11 11 11 11 10 9 6 5 5 6 7 7 6 5 4 3 2 1 0 -0 -1 -2 -3 -3 -4 -3 -3 -3 -3 -4 -4 -4 -4 -4 -4
13 13 13 13 13 13 13 12 12 11 11 11 11 11 10 7 5 5 6 6 7 6 5 4 3 2 1 0 -0 -1 -3 -4 -4 -4 -4 -4 -4 -4 -3 -3 -3 -3 -3 -3 -3
13 13 13 13 13 13 13 12 12 11 11 11 11 10 8 6 5 5 6 6 6 6 5 4 3 2 1 -0 -1 -2 -3 -4 -4 -3 -3 -3 -3 -3 -3 -3 -3 -3 -3 -2 -2
12 12 12 12 13 13 12 12 12 12 11 11 11 10 7 6 5 6 6 6 6 5 5 4 4 2 1 -0 -1 -2 -2 -2 -2 -2 -2 -2 -2 -2 -2 -3 -3 -2 -2 -1 -1
12 12 11 11 12 12 12 12 12 11 11 11 10 9 7 6 6 6 6 6 6 5 5 4 4 2 1 -0 -1 -1 -1 -1 -1 -1 -2 -2 -1 -1 -2 -2 -2 -2 -1 -0 -0
11 11 11 11 11 11 11 11 11 11 10 10 9 7 6 5 5 6 6 6 5 5 5 5 4 3 1 0 -0 -1 -1 -0 -0 -0 -1 -1 -1 -1 -2 -2 -2 -2 -1 -0 0
11 11 10 10 10 10 10 10 10 10 9 8 7 6 5 5 5 6 6 6 5 5 5 4 3 2 1 1 0 -1 -1 -0 0 0 -0 -0 -1 -2 -2 -2 -2 -1 -0 0 1
11 10 10 9 9 9 8 8 8 7 7 6 6 5 4 5 5 5 5 5 5 4 4 3 2 1 1 0 -0 -1 -1 -1 -0 -0 -1 -1 -1 -1 -1 -1 -1 -1 -0 1 1
10 9 9 8 8 7 6 6 5 5 5 5 4 4 4 4 4 5 5 4 4 3 3 2 2 1 0 -0 -1 -1 -1 -1 -1 -1 -1 -1 -1 -0 -0 -0 -0 -1 -0 0 1
9 8 8 7 7 6 5 4 4 4 4 4 4 4 3 3 4 4 4 4 3 2 1 1 1 1 0 -0 -0 -0 -0 -0 -0 -1 -1 -2 -1 -0 0 0 -0 -1 -1 -0 1
8 8 7 7 6 6 5 4 4 4 4 4 4 3 3 3 3 2 3 3 2 1 -0 -0 0 0 0 0 0 0 1 1 1 -0 -1 -2 -1 -0 -0 0 -0 -1 -1 -0 0
9 8 7 6 6 5 5 4 4 4 3 3 3 3 3 2 2 2 2 2 1 -0 -0 -0 -0 0 0 0 1 1 1 1 1 0 -1 -1 -1 -1 -0 -0 -0 -1 -1 -0 1
9 9 7 6 5 5 4 4 3 2 1 2 2 2 2 1 1 1 1 1 0 -0 -0 -0 0 0 0 1 1 1 1 1 1 1 -0 -1 -1 -1 -0 -0 -1 -1 -0 1 1
9 9 8 7 6 5 5 4 3 1 0 0 1 1 1 0 0 1 1 1 1 -0 -0 -0 -0 0 0 1 1 1 1 1 1 1 -0 -1 -1 -1 -1 -1 -1 -0 0 1 2
9 9 8 7 6 5 4 3 1 -0 -1 -0 0 0 0 -0 -0 0 0 0 0 0 -0 -0 -0 -0 0 0 1 1 2 1 1 1 -0 -1 -1 -1 -1 -1 -1 0 1 2 3
9 8 8 7 5 5 4 2 0 -1 -1 -1 -0 -0 -0 -0 -0 -0 -1 -1 -0 0 0 -0 -0 -0 0 0 1 1 1 1 1 0 -0 -1 -1 -1 -1 -1 -0 1 2 2 3
7 7 6 5 5 4 3 1 -0 -1 -1 -1 -1 -1 -1 -0 -0 -1 -1 -1 0 0 0 -0 -0 -0 -0 0 0 1 1 1 1 0 -0 -1 -1 -0 -0 -0 1 1 2 3 3
5 4 4 4 4 4 2 0 -0 -0 0 -0 -1 -1 -1 -1 -1 -1 -1 -1 -0 0 0 -0 0 0 0 -0 0 1 1 1 1 0 -0 -0 -0 0 0 1 1 2 2 3 4
3 3 3 4 4 3 1 0 0 1 1 0 -0 -0 -0 -0 -0 -1 -1 -0 0 0 0 0 1 1 0 0 0 1 1 1 0 -0 -0 -0 0 1 1 1 2 2 3 4 4
2 2 4 5 4 2 1 1 1 1 1 1 1 1 1 1 0 -0 -0 0 1 1 1 1 1 1 0 0 0 1 1 1 0 0 0 0 0 1 1 2 2 3 4 4 4
1 2 4 4 3 2 1 1 1 2 2 2 2 2 2 2 1 0 1 1 2 2 1 1 1 1 0 0 0 1 1 1 1 0 0 0 0 1 1 2 2 3 4 4 4
1 2 3 3 2 1 1 2 2 2 3 3 3 3 3 2 1 1 1 2 2 2 1 1 0 0 1 1 0 0 1 1 1 1 1 0 0 1 1 2 2 3 4 4 4
1 1 2 2 2 2 2 2 2 2 3 3 3 3 2 2 1 1 1 1 1 1 1 0 -0 -0 0 1 0 0 1 1 1 1 1 1 1 1 2 2 2 2 3 3 4
1 1 1 2 2 2 2 1 2 2 3 2 2 2 2 2 1 1 0 0 -0 0 0 0 -0 -0 -0 -0 -0 -0 0 1 1 1 1 1 2 2 2 2 2 3 3 3 4
2 1 1 2 2 2 2 1 1 2 2 2 1 1 2 2 2 2 1 0 -0 -1 -0 0 -0 -0 -1 -1 -1 -1 0 1 1 1 1 2 2 2 2 2 3 3 3 4 4